sat.trackr.live / text

‹ back to catalog

CONNECTA IOT-16

NORAD 67390 · 2026-004AD

PAYLOAD ACTIVE UNKNOWN

§ Identity

Operator
Country
TURK
Launch date
2026-01-11
Launch site
AFWTR
Launch vehicle
Mass (kg)
RCS (m²)

External: N2YO · Heavens-Above · Gunter

§ Orbital elements

Epoch: 2026-09-20T11:43:00.417792Z

Period
94.82 min
Inclination
97.4655°
Eccentricity
0.0004513
Mean motion
15.18593201 rev/d
Perigee alt
507.0 km
Apogee alt
513.2 km
Semi-major
6,888.2 km
B*
2.5991e-4
RAAN
261.1387°
Arg perigee
39.3431°
Mean anomaly
320.8130°
Rev number
3,820

§ Raw data

CONNECTA IOT-161 67390U 26004AD  26263.48819928  .00005309  00000+0  25991-3 0  99902 67390  97.4655 261.1387 0004513  39.3431 320.8130 15.18593201 38202

JSON: /api/v1/satellites/67390 · /tle

For live sub-satellite position, see the globe view (requires WebGL).

§ Visibility from observer

Set your observer location to see the next 7 days of passes ≥ 10°. The values pass through the URL so the page stays shareable.

No JS? Fill the form by hand. The geolocation button needs JavaScript.